Regional Weather Roundup
Issued by NWS

Home | Current Version | Previous Version | Text Only | Print | Product List | Glossary Off
Versions: 1 2 3 4 5 6 7 8 9 10 11 12 13 14 15 16 17 18 19 20 21 22 23 24 25 26 27 28 29 30 31 32 33 34 35 36 37 38 39 40 41 42 43 44 45 46 47 48 49 50

000
ASUS45 KTFX 012019
RWRMT
MONTANA HOURLY WEATHER ROUNDUP
NATIONAL WEATHER SERVICE GREAT FALLS MT
219 PM MDT FRI AUG 1 2014

NOTE: "FAIR" INDICATES FEW OR NO CLOUDS BELOW 12000 FEET WITH NO
SIGNIFICANT WEATHER AND/OR OBSTRUCTIONS TO VISIBILITY.

* THESE STATIONS ARE NOT UNDER NWS QUALITY CONTROL. THEY DO NOT
   REPORT WEATHER SUCH AS PRECIPITATION OR FOG.

MTZ001>007-043-012100-
WEST OF THE DIVIDE
CITY           SKY/WX    TMP DP  RH WIND       PRES   REMARKS
KALISPELL      PTCLDY    90  48  24 CALM      30.09F
MISSOULA       PTCLDY    93  36  13 VRB5      30.07F
BUTTE          PTCLDY    84  34  17 S12       30.25F
MULLAN PASS    CLOUDY    73  43  34 CALM      30.30S
* ESSEX        N/A      N/A N/A N/A N/A        N/A
* LINCOLN      N/A       86  44  23 NE8G16     N/A
* LOOKOUT PASS N/A       77  50  39 VRB3       N/A
* POLSON       N/A       87  47  25 N3         N/A
* RONAN APT    PTCLDY    84  52  33 N10G15     N/A
* SEELEY LAKE  N/A       89  37  16 S7G13      N/A
* THOMP F APT  CLOUDY    76  43  31 N5G15      N/A
$$

MTZ008-052>055-012100-
SOUTHWEST MONTANA
CITY           SKY/WX    TMP DP  RH WIND       PRES   REMARKS
BOZEMAN        PTCLDY    84  46  26 N7        30.18F
DILLON         PTCLDY    84  41  22 NE12      30.21F
W YELLOWSTONE  PTCLDY    77  36  23 N3        30.30F
* THREE FORKS  PTCLDY    86  48  27 N/A        N/A
* BOULDER HILL N/A       79  42  27 N9         N/A
* MONIDA PASS  N/A       74  34  23 N8G14      N/A
* RAYNOLDS PAS N/A       81  69  67 N/A        N/A   HI  84
* WHITEHALL    N/A       87  45  23 SE6        N/A
* WISE RIVER   N/A       82  33  17 E7G18      N/A
$$

MTZ009>010-012-014-046-048-049-054-012100-
EAST SLOPES AND CENTRAL MONTANA
CITY           SKY/WX    TMP DP  RH WIND       PRES   REMARKS
CUT BANK       PTCLDY    82  54  38 N9G18     30.21F
GREAT FALLS    SUNNY     86  45  24 VRB3      30.17F
HELENA         SUNNY     90  43  19 VRB5      30.15F
MALMSTROM AFB  SUNNY     86  43  22 NE7       30.18F
* CONRAD       PTCLDY    84  57  40 N/A        N/A   HI  83
* DEARBORN     N/A       84  50  31 VRB10      N/A
* EAST GLACIER N/A       74  55  52 SE4        N/A
* MONARCH      N/A       82  46  28 E13        N/A
* PENDROY      N/A       81  57  44 E8         N/A   HI  81
* ROGERS PASS  N/A       80  48  33 W2G9       N/A
* SAINT MARY   N/A       76  55  48 N6         N/A
* SWEET GRASS  N/A       78  55  45 NE12G17    N/A
* WHITE SULPH  N/A       87  37  17 N6G11      N/A
$$

MTZ011-013-016-021-035-040-045-047-050-051-012100-
NORTH CENTRAL MONTANA
CITY           SKY/WX    TMP DP  RH WIND       PRES   REMARKS
HAVRE          SUNNY     88  52  29 VRB5      30.12F
* FORT BENTON  SUNNY     90  45  21 E6        30.13F
* CHESTER      N/A       86  48  27 SE4G9      N/A
* DENTON       N/A       90  50  25 NE9G14     N/A
* GEYSER       N/A       87  49  27 E6G12      N/A
* JUDITH GAP   N/A       84  48  29 NE9G16     N/A
* LOMA         N/A       90  45  21 N2G9       N/A
$$

MTZ017>020-022>027-061-062-012100-
NORTHEAST MONTANA
CITY           SKY/WX    TMP DP  RH WIND       PRES   REMARKS
GLASGOW        PTCLDY    90  52  27 N/A       30.08S
GLENDIVE       SUNNY     88  52  29 E13G24    30.09S
JORDAN         SUNNY     91  46  21 N10G16    30.10S
SIDNEY         SUNNY     86  57  37 E9        30.10S
WOLF POINT     SUNNY     90  48  24 S3        30.07F
* CIRCLE       N/A       88  56  34 N3         N/A
* NAVAJO       N/A       82  56  41 NW5G12     N/A   HI  82
$$

MTZ028>042-056>058-012100-
SOUTHCENTRAL AND SOUTHEAST MONTANA
CITY           SKY/WX    TMP DP  RH WIND       PRES   REMARKS
BAKER          SUNNY     90  48  24 NE9G18    30.08S
BILLINGS       PTCLDY    91  41  17 NE13G22   30.14F
LIVINGSTON     PTSUNNY   90  37  15 E14G20    30.19F
MILES CITY     SUNNY     93  45  19 N8G18     30.06S
* LAUREL APT   PTCLDY    91  43  19 NE10       N/A
* ROUNDUP APT  PTCLDY    90  43  19 N10G17     N/A
* HYSHAM       N/A       89  46  23 W9G16      N/A
* REED POINT   N/A       91  48  23 NE4G13     N/A
* ROSCOE HILL  N/A       84  41  22 N4G11      N/A
$$

REGIONAL REPORTS...DAKOTAS
CITY           SKY/WX    TMP DP  RH WIND       PRES   REMARKS
WILLISTON      PTSUNNY   81  57  44 E8        30.09F HI  81
DICKINSON      PTSUNNY   84  61  46 E13G18    30.07F HI  84
CROSBY         SUNNY     81  59  47 SE5       30.10F HI  81
TIOGA          SUNNY     77  61  58 E9        30.14S
WATFORD CITY   PTCLDY    77  63  62 E6        30.09R
BISMARCK       PTCLDY    90  55  31 S7        30.06S
GRAND FORKS    PTCLDY    82  59  46 NE8       30.07S HI  82
FARGO          PTCLDY    84  59  43 N10       30.06F HI  84
BUFFALO SD     SUNNY     88  46  23 VRB3      30.01F
RAPID CITY     PTSUNNY   79  48  34 SW12G23   30.08F
$$

REGIONAL REPORTS...WYOMING/IDAHO/WASHINGTON
CITY           SKY/WX    TMP DP  RH WIND       PRES   REMARKS
GILLETTE       PTCLDY    88  39  18 NW13      30.16F
SHERIDAN       PTCLDY    91  39  16 N9        30.16S
CODY           PTCLDY    82  43  25 N8        30.22S
YELLOWSTONE LA PTSUNNY   70  36  29 SE7       30.42F
SALMON         PTSUNNY   84  45  26 N3        30.09F
MULLAN PASS    CLOUDY    73  43  34 CALM      30.30S
SAND POINT     PTSUNNY   86  46  25 N5        30.05F
SPOKANE        CLOUDY    84  45  26 NE8       30.05F
$$

REGIONAL REPORTS...ALBERTA
CITY           SKY/WX    TMP DP  RH WIND       PRES   REMARKS
CALGARY        PTSUNNY   77  52  42 E9        30.24F
LETHBRIDGE     PTSUNNY   75  57  54 E5        30.21F
MEDICINE HAT   CLOUDY    82  52  35 NE6       30.16S
EDMONTON       PTSUNNY   72  59  64 N10       30.23F
WATERTON GATE  N/A       75  54  48 E6         N/A
CARDSTON       N/A       75  57  54 N5         N/A
MILK RIVER     N/A       81  55  41 NE7        N/A   HI  81
$$

REGIONAL REPORTS...SASKATCHEWAN
CITY           SKY/WX    TMP DP  RH WIND       PRES   REMARKS
SWIFT CURRENT  PTCLDY    77  57  50 VRB2      30.11F
MOOSE JAW      PTSUNNY   82  63  53 E2        30.08F HI  83
REGINA         PTCLDY    82  61  49 W6        30.09F HI  83
VAL MARIE      N/A       84  54  36 E5         N/A
ASSINIBOIA     N/A       81  52  37 S2         N/A
CORONACH       N/A       82  54  38 N5         N/A

$$



USA.gov is the U.S. government's official web portal to all federal, state and local government web resources and services.